This demonstration page uses our WeatherBlox Daily Observations layout. Learn more.

Left ArrowRight Arrow

39.01783, -85.05884

Hourly Observations for February 25, 2019

Temp ( °F °C ) Dew Point ( °F °C ) Humidity (%) Winds ( mph kmh ) Pressure ( in mb ) Visibility ( mi km ) Precip ( " mm )
12:52 am 00:52 Clear 30 -1.1 15 -9.4 54 54 W 17 28 30.17 1022 10 16 0.00 0.00
1:52 am 01:52 Clear 29 -1.7 15 -9.4 56 56 W 16 26 30.20 1023 10 16 0.00 0.00
2:52 am 02:52 Clear 28 -2.2 14 -10 56 56 W 16 26 30.22 1023 10 16 0.00 0.00
3:52 am 03:52 Clear 27 -2.8 12 -11.1 53 53 W 17 28 30.24 1024 10 16 0.00 0.00
4:52 am 04:52 Clear 26 -3.3 13 -10.6 57 57 W 17 28 30.28 1025 10 16 0.00 0.00
5:52 am 05:52 Clear 24 -4.4 10 -12.2 55 55 W 22 35 30.32 1027 10 16 0.00 0.00
6:52 am 06:52 Clear 23 -5 11 -11.7 60 60 W 13 20 30.36 1028 10 16 0.00 0.00
7:52 am 07:52 Sunny 23 -5 6 -14.4 48 48 W 17 28 30.40 1029 10 16 0.00 0.00
8:52 am 08:52 Sunny 25 -3.9 11 -11.7 55 55 W 15 24 30.42 1030 10 16 0.00 0.00
9:52 am 09:52 Sunny 27 -2.8 3 -16.1 35 35 WNW 17 28 30.45 1031 10 16 0.00 0.00
10:52 am 10:52 Mostly Sunny 30 -1.1 6 -14.4 36 36 W 15 24 30.47 1032 10 16 0.00 0.00
11:52 am 11:52 Mostly Sunny 33 0.6 4 -15.6 29 29 NW 12 19 30.47 1032 10 16 0.00 0.00
12:52 pm 12:52 Mostly Sunny 37 2.8 5 -15 26 26 W 12 19 30.46 1032 10 16 0.00 0.00
1:52 pm 13:52 Sunny 38 3.3 5 -15 25 25 WNW 10 17 30.44 1031 10 16 0.00 0.00
2:52 pm 14:52 Mostly Sunny 39 3.9 6 -14.4 25 25 W 13 20 30.44 1031 10 16 0.00 0.00
3:52 pm 15:52 Mostly Sunny 39 3.9 4 -15.6 23 23 W 9 15 30.44 1031 10 16 0.00 0.00
4:52 pm 16:52 Mostly Sunny 40 4.4 4 -15.6 22 22 WNW 5 7 30.43 1031 10 16 0.00 0.00
5:52 pm 17:52 Mostly Sunny 38 3.3 6 -14.4 26 26 W 5 7 30.42 1030 10 16 0.00 0.00
6:52 pm 18:52 Mostly Clear 36 2.2 7 -13.9 30 30 NNW 3 6 30.42 1030 10 16 0.00 0.00
7:52 pm 19:52 Mostly Clear 30 -1.1 12 -11.1 47 47 Calm 30.43 1031 10 16 0.00 0.00
8:52 pm 20:52 Mostly Cloudy 33 0.6 12 -11.1 42 42 Calm 30.42 1030 10 16 0.00 0.00
9:52 pm 21:52 Cloudy 29 -1.7 19 -7.2 66 66 S 3 6 30.41 1030 10 16 0.00 0.00
10:52 pm 22:52 Partly Cloudy 33 0.6 13 -10.6 43 43 Calm 30.40 1029 10 16 0.00 0.00
11:52 pm 23:52 Mostly Clear 32 0 13 -10.6 45 45 Calm 30.40 1030 10 16 0.00 0.00

Powered by AerisWeather